Hourly Data Report for June 04, 2021

VINELAND STATION RCS
ONTARIO
Current Station Operator: ECCC - MSC

43°11'00.000" N
79°24'00.000" W
79.20 m
6139148
71171
XVN

Download Data

Hourly Data (June 2021)
Hourly Data Report for June 4, 2021
TIME
LST
Temp Definition
°C
Dew Point Definition
°C
Rel Hum Definition
%
Precip. Amount Definition
mm

Wind Dir Definition
10's deg

Wind Spd Definition
km/h
Visibility Definition
km
Stn Press Definition
kPa
Hmdx Definition


Wind Chill Definition


Weather Definition


00:00 16.6 14.4 87 0.0 26 9   100.13     LegendNANA
01:00 16.9 14.8 87 0.0 22 11   100.12     LegendNANA
02:00 16.4 14.7 90 0.0 24 10   100.13     LegendNANA
03:00 16.4 14.6 89 0.0 22 11   100.10     LegendNANA
04:00 15.5 14.2 92 0.0 24 11   100.12     LegendNANA
05:00 14.8 14.0 95 0.0 23 12   100.17     LegendNANA
06:00 15.8 14.7 93 0.0 27 7   100.19     LegendNANA
07:00 17.8 15.7 87 0.0 24 9   100.19     LegendNANA
08:00 18.8 16.1 85 0.0 20 13   100.21     LegendNANA
09:00 19.5 16.2 81 0.0 21 19   100.23     LegendNANA
10:00 20.5 17.0 81 0.0 21 14   100.20 26   LegendNANA
11:00 20.6 16.5 77 0.0 21 13   100.20 26   LegendNANA
12:00 20.7 16.5 77 0.0 21 14   100.18 26   LegendNANA
13:00 23.5 17.1 67 0.0 20 15   100.13 29   LegendNANA
14:00 25.2 17.4 62 0.0 21 17   100.09 31   LegendNANA
15:00 26.0 14.9 50 0.0 22 17   100.06 30   LegendNANA
16:00 24.7 16.1 59 0.0 20 15   100.03 29   LegendNANA
17:00 24.6 15.5 57 0.0 22 19   100.01 29   LegendNANA
18:00 25.3 15.3 54 0.0 22 18   100.00 29   LegendNANA
19:00 24.1 15.7 59 0.0 21 13   99.98 29   LegendNANA
20:00 21.8 15.4 67 0.0 20 14   99.99 26   LegendNANA
21:00 21.3 15.5 70 0.0 20 17   99.99 26   LegendNANA
22:00 20.2 15.2 73 0.0 20 17   99.98     LegendNANA
23:00 19.8 15.0 74 0.0 21 22   99.97     LegendNANA

Notes on Data Quality.

Legend

  • E = Estimated
  • M = Missing
  • NA = Not Available*
  • [empty] = Indicates an unobserved value
Date modified: